Weather History for PAGH - January, 2014

Change the Weather History Date:

Tuesday, January 14, 2014

  Actual Average (PAFM) Record (PAFM)
Temperature  
Mean Temperature -14 °F -  
Max Temperature -5 °F 3 °F 33 °F (1997)
Min Temperature -22 °F -4 °F -58 °F (1991)
Degree Days  
Heating Degree Days 78    
Moisture  
Dew Point -17 °F    
Average Humidity 79    
Maximum Humidity 84    
Minimum Humidity 69    
Precipitation  
Precipitation 0.00 in - - ()
Sea Level Pressure  
Sea Level Pressure 29.39 in    
Wind  
Wind Speed 5 mph (WSW)    
Max Wind Speed 8 mph    
Max Gust Speed -    
Visibility 7 miles    
Events Snow    
Averages and records for this station are not official NWS values.
T = Trace of Precipitation, MM = Missing Value Source: NWS Daily Summary

Daily Weather History Graph

Daily Weather History Graph

Search for Another Location

Airport or City:

Trip Planner

Search our weather history database for the weather conditions in past years. The results will help you decide how hot, cold, wet, or windy it might be!

Date:

Astronomy

Jan. 14, 2014 Rise Set
Actual Time 11:39 AM AKST 3:37 PM AKST
Civil Twilight 10:12 AM AKST 5:04 PM AKST
Nautical Twilight 8:57 AM AKST 6:18 PM AKST
Astronomical Twilight 7:52 AM AKST 7:23 PM AKST
Moon 3:19 PM AKST (1/14) 9:57 AM AKST (1/14)
Length of Visible Light 6h 52m
Length of Day
3h 57m
Waxing Gibbous, 98% of the Moon is Illuminated
Jan 14
Waxing Gibbous
Jan 15
Full
Jan 23
Last Quarter
Jan 30
New
Feb 6
First Quarter

Hourly Weather History & Observations

Time (AKST) Temp. Windchill Dew Point Humidity Pressure Visibility Wind Dir Wind Speed Gust Speed Precip Events Conditions
12:43 AM -22.0 °F -39.4 °F -27.4 °F 76% 29.41 in 6.0 mi West 6.9 mph - 0.00 in Snow Light Snow
12:49 AM -22.0 °F -37.7 °F -27.4 °F 76% 29.41 in 5.0 mi West 5.8 mph - 0.00 in Snow Light Snow
12:57 AM -22.0 °F -35.6 °F -27.0 °F 77% 29.52 in 5.0 mi Variable 4.6 mph - 0.00 in Snow Light Snow
1:00 AM -20.2 °F -30.9 °F -27.4 °F 69% 29.40 in 5.0 mi Variable 3.5 mph - 0.00 in Snow Light Snow
1:21 AM -20.2 °F -33.5 °F -25.6 °F 76% 29.39 in 5.0 mi West 4.6 mph - 0.00 in Snow Light Snow
1:57 AM -20.0 °F -35.3 °F -26.0 °F 74% 29.49 in 9.0 mi West 5.8 mph - 0.00 in Snow Light Snow
2:57 AM -18.0 °F - -24.0 °F 74% 29.46 in 9.0 mi Calm Calm - 0.00 in Snow Light Snow
3:26 AM -18.4 °F -35.1 °F -23.8 °F 76% 29.33 in 6.0 mi WSW 6.9 mph - 0.00 in Snow Light Snow
3:57 AM -16.1 °F -28.6 °F -22.0 °F 74% 29.44 in 3.0 mi West 4.6 mph - 0.00 in Snow Light Snow
4:19 AM -16.6 °F -29.3 °F -20.2 °F 84% 29.31 in 2.5 mi WSW 4.6 mph - 0.00 in Snow Light Snow
4:22 AM -14.8 °F -27.2 °F -20.2 °F 77% 29.31 in 3.0 mi WSW 4.6 mph - 0.00 in Snow Light Snow
4:42 AM -14.8 °F -27.2 °F -20.2 °F 77% 29.31 in 2.5 mi West 4.6 mph - 0.00 in Snow Light Snow
4:49 AM -14.8 °F -29.1 °F -18.4 °F 84% 29.31 in 3.0 mi West 5.8 mph - 0.00 in Snow Light Snow
4:57 AM -14.1 °F -28.3 °F -18.9 °F 79% 29.42 in 7.0 mi SW 5.8 mph - 0.00 in Snow Light Snow
5:01 AM -14.8 °F -29.1 °F -18.4 °F 84% 29.30 in 8.0 mi SW 5.8 mph - 0.00 in Snow Light Snow
5:57 AM -11.0 °F -22.8 °F -16.1 °F 78% 29.40 in 9.0 mi West 4.6 mph - 0.00 in Snow Light Snow
6:27 AM -11.2 °F -23.0 °F -16.6 °F 77% 29.28 in 7.0 mi SSW 4.6 mph - 0.00 in Snow Light Snow
6:57 AM -9.9 °F -23.4 °F -14.1 °F 82% 29.39 in 5.0 mi SW 5.8 mph - 0.00 in Snow Light Snow
7:57 AM -9.0 °F -20.4 °F -13.0 °F 83% 29.37 in 5.0 mi WSW 4.6 mph - 0.00 in Snow Light Snow
8:14 AM -7.6 °F -20.6 °F -13.0 °F 77% 29.26 in 2.5 mi West 5.8 mph - 0.00 in Snow Light Snow
8:27 AM -7.6 °F -20.6 °F -13.0 °F 77% 29.25 in 3.0 mi WSW 5.8 mph - 0.00 in Snow Light Snow
8:44 AM -7.6 °F -18.8 °F -13.0 °F 77% 29.26 in 8.0 mi SW 4.6 mph - 0.00 in Snow Light Snow
8:57 AM -8.0 °F -19.2 °F -13.0 °F 79% 29.37 in 9.0 mi SW 4.6 mph - 0.00 in Snow Light Snow
9:32 AM -7.6 °F -18.8 °F -11.2 °F 84% 29.25 in 9.0 mi SSW 4.6 mph - 0.00 in Snow Light Snow
9:57 AM -7.1 °F -18.1 °F -11.0 °F 83% 29.36 in 9.0 mi SW 4.6 mph - 0.00 in Snow Light Snow
10:09 AM -5.8 °F -14.5 °F -9.4 °F 84% 29.24 in 8.0 mi SW 3.5 mph - 0.00 in Snow Light Snow
1:27 PM -5.8 °F -19.9 °F -9.4 °F 84% 29.24 in 9.0 mi West 6.9 mph - 0.00 in Snow Light Snow
1:46 PM -5.8 °F -19.9 °F -9.4 °F 84% 29.25 in 9.0 mi West 6.9 mph - 0.00 in Snow Light Snow
1:57 PM -5.1 °F -19.1 °F -9.9 °F 80% 29.37 in 9.0 mi West 6.9 mph - 0.00 in Snow Light Snow
2:09 PM -5.8 °F -21.2 °F -9.4 °F 84% 29.25 in 9.0 mi West 8.1 mph - 0.00 in Snow Light Snow
3:57 PM -8.0 °F -19.2 °F -11.9 °F 83% 29.39 in 9.0 mi West 4.6 mph - 0.00 in Snow Light Snow
4:57 PM -8.0 °F -22.5 °F -13.0 °F 79% 29.42 in 9.0 mi West 6.9 mph - 0.00 in Snow Light Snow
5:57 PM -7.1 °F -18.1 °F -11.9 °F 79% 29.44 in 10.0 mi WSW 4.6 mph - 0.00 in   Overcast
6:57 PM -7.1 °F -18.1 °F -11.9 °F 79% 29.48 in 10.0 mi West 4.6 mph - 0.00 in   Overcast
7:57 PM -7.1 °F -18.1 °F -11.0 °F 83% 29.52 in 10.0 mi West 4.6 mph - N/A   Overcast
8:57 PM -7.1 °F -15.9 °F -11.9 °F 79% 29.55 in 10.0 mi WSW 3.5 mph - N/A   Overcast
9:57 PM -7.1 °F -15.9 °F -11.9 °F 79% 29.59 in 10.0 mi North 3.5 mph - N/A   Overcast
10:57 PM -9.9 °F -21.5 °F -14.1 °F 82% 29.63 in 10.0 mi SSW 4.6 mph - N/A   Partly Cloudy
11:57 PM -13.0 °F -30.0 °F -18.9 °F 75% 29.68 in 10.0 mi West 8.1 mph - N/A   Scattered Clouds